Regional Weather Roundup
Issued by NWS Huntsville, AL

Current Version | Previous Version | Text Only | Print | Product List | Glossary On
Versions: 1 2 3 4 5 6 7 8 9 10 11 12 13 14 15 16 17 18 19 20 21 22 23 24 25 26 27 28 29 30 31 32 33 34 35 36 37 38 39 40 41 42 43 44 45 46 47 48 49 50
000
ASUS44 KHUN 241810
RWRHUN

WEATHER ROUNDUP FOR THE TENNESSEE VALLEY
NATIONAL WEATHER SERVICE HUNTSVILLE AL
100 PM CDT THU JUL 24 2014

ALZ001>004-241900-
NORTHWEST ALABAMA

CITY           SKY/WX    TMP DP  RH WIND       PRES   REMARKS
COURTLAND HCN    N/A     79 N/A N/A NW3         N/A
RUSSELLVILLE     N/A     81 N/A N/A MISG        N/A
SHOALS AIRPORT MOSUNNY   85  67  54 NW7       30.02F
6HR MIN TEMP:  72; 6HR MAX TEMP:  85;

SHOALS TVA RES   N/A     82 N/A N/A MISG        N/A
$$

ALZ005>007-016-241900-
NORTH CENTRAL ALABAMA

CITY           SKY/WX    TMP DP  RH WIND       PRES   REMARKS
CULLMAN AG STN   N/A     81 N/A N/A NW6         N/A
DECATUR AP     PTSUNNY   79  71  76 W5        30.02S
6HR MIN TEMP:  73; 6HR MAX TEMP:  81;

HUNTSVILLE AP  MOSUNNY   82  72  71 VRB7      30.01F
6HR MIN TEMP:  72; 6HR MAX TEMP:  82;

HUN NWS/UAH      N/A     81  66  61 NW6         N/A
MERIDIANVILLE  MOSUNNY   79  64  61 NW8       30.01F
VINEMONT AP    FAIR      82  70  66 NW7       30.04F
$$

ALZ008>010-241900-
NORTHEAST ALABAMA

CITY           SKY/WX    TMP DP  RH WIND       PRES   REMARKS
ALBERTVILLE    PTSUNNY   79  77  94 NW8       30.01F
FORT PAYNE     MOSUNNY   81  68  65 NW12      29.99F
SCOTTSBORO HCN   N/A     81 N/A N/A MISG        N/A
VALLEY HEAD      N/A     81 N/A N/A MISG        N/A
$$

TNZ076-096-097-241900-
SOUTHEASTERN MIDDLE TENNESSEE

CITY           SKY/WX    TMP DP  RH WIND       PRES   REMARKS
FAYETTEVILLE   MOSUNNY   79  66  65 NW8       30.01F
TULLAHOMA      SUNNY     81  68  65 W6        30.02F
WINCHESTER     MOSUNNY   81  70  69 NW6       30.01F
$$

...SURROUNDING SITES...

CITY           SKY/WX    TMP DP  RH WIND       PRES   REMARKS
ATLANTA        PTSUNNY   86  70  58 W12       29.97F HX  90
ANNISTON       MOSUNNY   87  70  56 SW9       29.98F HX  92
BIRMINGHAM     PTSUNNY   86  71  60 W7        30.01F HX  91
CHATTANOOGA    PTSUNNY   83  69  62 CALM      29.98F
CORINTH        PTSUNNY   81  66  61 W7        30.02F
DALTON         PTSUNNY   82  72  69 CALM      29.97F
GADSDEN        MOSUNNY   84  70  61 NW9       29.97F
GOLDEN TRNGL   PTSUNNY   88  73  62 NW5       30.01F HX  96
HALEYVILLE     PTSUNNY   80  71  74 NW6       30.05F
JACKSON TN     SUNNY     79  58  48 N8        30.05S
LEWISBURG      FAIR      82  67  60 N7        30.00F
MEMPHIS        MOSUNNY   82  55  39 N8        30.06F
NASHVILLE      CLOUDY    76  66  71 N10       30.03S
ROME           PTSUNNY   83  73  72 VRB6      29.96F
TUPELO         MOSUNNY   83  68  60 N8        30.01F
TUSCALOOSA     CLOUDY    87  72  60 W9        29.99F HX  93
$$

...GULF COAST WEATHER...

CITY           SKY/WX    TMP DP  RH WIND       PRES   REMARKS
GULFPORT       MOSUNNY   89  71  55 S7        30.00F HX  95
PASCAGOULA     MOSUNNY   84  74  71 S9        30.01F HX  91
MOBILE         PTSUNNY   78  74  87 E3        30.03S THUNDER FOG
GULF SHORES    CLEAR     86  74  66 S7        30.01F HX  94
PENSACOLA      PTSUNNY   86  74  67 S10       30.01F HX  94
DESTIN         MOSUNNY   86  75  69 SW7       30.02F HX  95
PANAMA CITY    PTSUNNY   86  77  74 SW9       30.04S HX  97
APPALACHICOLA  MOSUNNY   89  76  65 S13       30.02F HX 100
$$



USA.gov is the U.S. government's official web portal to all federal, state and local government web resources and services.